Regional Weather Roundup
Issued by NWS

Home | Current Version | Previous Version | Text Only | Print | Product List | Glossary Off
Versions: 1 2 3 4 5 6 7 8 9 10 11 12 13 14 15 16 17 18 19 20 21 22 23 24 25 26 27 28 29 30 31 32 33 34 35 36 37 38 39 40 41 42 43 44 45 46 47 48 49 50

000
ASUS43 KMKX 030500
RWRWI

WISCONSIN REGIONAL WEATHER ROUNDUP
NATIONAL WEATHER SERVICE MILWAUKEE/SULLIVAN WI
1200 AM CDT THU SEP 03 2015

NOTE: "FAIR" INDICATES FEW OR NO CLOUDS BELOW 12,000 FEET WITH NO
SIGNIFICANT WEATHER AND/OR OBSTRUCTIONS TO VISIBILITY.

WIZ001-002-006>008-014>016-023>028-030600-
NORTHWEST WISCONSIN

CITY           SKY/WX    TMP DP  RH WIND       PRES   REMARKS
SUPERIOR ARPT  CLOUDY    59  58  96 NE6       29.97S
ASHLAND        FOG       62  62 100 CALM      29.98S VSB 1/4
HAYWARD        FOG       63  62  97 NE3       29.97S VSB 1
SIREN          PTCLDY    65  64  94 NE3       29.95S
CUMBERLAND     CLEAR     63  63 100 NE3       29.95F
RICE LAKE      MOCLDY    64  63  95 CALM      29.96S FOG
CHETEK         MOCLDY   N/A N/A N/A MISG      29.95R HAZE
LADYSMITH      MOCLDY    68  66  94 NE3       29.98R
EAU CLAIRE     NOT AVBL
MENOMONIE      PTCLDY    68  67  96 CALM      29.93S
NEW RICHMOND   PTCLDY    67  66  97 E3        29.94S
OSCEOLA        CLEAR     67  67 100 E3        29.96S
$$

WIZ003>005-009-010-017-018-030600-
NORTH CENTRAL WISCONSIN

CITY           SKY/WX    TMP DP  RH WIND       PRES   REMARKS
MANITOWISH WTR MOCLDY    64  64 100 CALM      29.99F
ARBOR VITAE    CLOUDY    66  64  94 CALM      29.98F
WOODRUFF       CLOUDY    66  64  94 CALM      29.98F
RHINELANDER    CLOUDY    66  64  93 E5        29.98F
EAGLE RIVER    LGT RAIN  65  65  99 E6        29.99F
LAND O LAKES   MOCLDY    65  64  99 CALM      30.01S
PHILLIPS       PTCLDY    63  63 100 CALM      29.98R
TOMAHAWK       CLOUDY    65  64  94 NE3       29.98S
MEDFORD        CLOUDY    67  67 100 NE3       29.96S FOG
MERRILL        CLOUDY    67  67 100 NE3       29.96S
$$

WIZ029-030-035-036-043>047-030600-
CENTRAL WISCONSIN

CITY           SKY/WX    TMP DP  RH WIND       PRES   REMARKS
WAUSAU         LGT RAIN  68  67  96 N3        29.93S FOG
MOSINEE        CLOUDY    68  68 100 CALM      29.94F FOG
MARSHFIELD     MOCLDY    71  66  84 CALM      29.93F
STEVENS POINT  CLOUDY    68  67  98 CALM      29.93S FOG
WAUPACA        MOCLDY    72  71  96 CALM      29.92F
WAUTOMA        NOT AVBL
WISC RAPIDS    CLOUDY    73  70  90 SW3       29.93F
CAMP DOUGLAS   NOT AVBL
$$

WIZ011>013-019>022-031-037>040-048>050-030600-
NORTHEAST WISCONSIN

CITY           SKY/WX    TMP DP  RH WIND       PRES   REMARKS
ANTIGO         CLOUDY    66  66 100 NE5       29.96S
SHAWANO        TSTM      69  67  93 NE9       29.92S
OCONTO         CLOUDY    67  67 100 CALM      29.92S
STURGEON BAY   CLOUDY    68  63  83 CALM      29.94F
GREEN BAY      LGT RAIN  70  68  93 CALM      29.90F FOG
MANITOWOC      NOT AVBL
APPLETON       MOCLDY    73  66  78 CALM      29.91S
CLINTONVILLE   CLOUDY    68  66  94 N3        29.91F
OSHKOSH        PTCLDY    73  68  84 SW7       29.91F
$$

WIZ032>034-041-042-053>061-030600-
SOUTHWEST WISCONSIN

CITY           SKY/WX    TMP DP  RH WIND       PRES   REMARKS
LA CROSSE      MOCLDY    76  70  82 S6        29.91R
SPARTA         MOCLDY    69  66  92 CALM      29.93S
VIROQUA          N/A     73  69  87 S7        29.95S
BOSCOBEL       CLOUDY    77  70  79 W3        29.94S
PRAIRIE DU CHI CLEAR     73  67  82 CALM      29.93R
PLATTEVILLE    CLEAR     71  69  94 S3        29.96S
$$

WIZ056-057-062-063-064-067-068-030600-
SOUTH CENTRAL WISCONSIN

CITY           SKY/WX    TMP DP  RH WIND       PRES   REMARKS
REEDSBURG      CLOUDY    72  69  90 CALM      29.94S
BARABOO/DELLS  CLOUDY    74  67  79 SW7       29.94F
LONE ROCK      NOT AVBL
MINERAL POINT  CLOUDY    77  70  78 SW5       29.97S
MADISON        CLOUDY    76  69  79 SW3       29.94F
MIDDLETON      CLOUDY    75  70  84 CALM      29.96S
WATERTOWN      MOCLDY    73  73 100 S3        29.95F
MONROE         CLOUDY    73  70  88 SW7       29.97S
JANESVILLE     PTCLDY    73  70  88 S3        29.95S
$$

WIZ051-052-058>065-066-070>072-030600-
SOUTHEAST WISCONSIN

CITY           SKY/WX    TMP DP  RH WIND       PRES   REMARKS
MILWAUKEE      MOCLDY    76  70  82 S7        29.95S
WAUKESHA       CLOUDY    72  68  88 CALM      29.97S
MILWAUKEE/TIMM PTCLDY    75  68  78 S5        29.95F
RACINE         CLOUDY    74  69  85 S3        29.97S
BURLINGTON     PTCLDY    69  68  96 CALM      29.96S FOG
KENOSHA        PTCLDY    76  69  79 S6        29.96F
FOND DU LAC    PTCLDY    72  68  87 S6        29.92F
SHEBOYGAN      MOCLDY    72  69  90 S7        29.93F
WEST BEND      PTCLDY    72  66  83 CALM      29.94F
JUNEAU         CLOUDY    74  68  83 S5        29.95F
$$

LSZ147-162-030600-
LAKE SUPERIOR

STATION/POSITION TIME  TEMP    WIND        PRES    WAVE
                       AIR SEA DIR/SP/G            HT/PER
                 (UTC) (F)     (DEG/KT/KT) (MB)    (FT/S)
W MID LAKE BUOY  0350   58 56   80/  6/  6 1014.8F   0
DEVILS ISLAND    0400   59      40/  3/  3 1015.2R
PORT WING        0400   60      40/  1/  6 1014.9R
SAXON HARBOR     0400   61      CALM  /  3 1014.6
$$

LMZ867-665-643>646-030600-
LAKE MICHIGAN

STATION/POSITION TIME  TEMP    WIND        PRES    WAVE
                       AIR SEA DIR/SP/G            HT/PER
                 (UTC) (F)     (DEG/KT/KT) (MB)    (FT/S)
CHAMBERS ISLAND  0400   66     240/ 14/ 20 1014.2R
S GREEN BAY BUOY 0400   67 66  140/  6/  6 1014.8R
N MID LAKE BUOY  0350   68 66  150/  4/  6 1013.7S   1
NORTHPORT PIER   0400   67     150/  6/  9 1013.5S
SISTER BAY       0419   68     130/  8/ 11   N/A
ALGOMA LAKESHORE 0414          230/  4/  6   N/A
KEWAUNEE LAKESHO 0400   58     180/ 10/ 10 1012.6F
SHEBOYGAN LAKESH 0400   67     160/ 12/ 14 1013.9F
PORT WASHINGTON  0440   64     200/  4/  5 1014.2F
ATWATER BUOY     0400   61     150/  6/  6 1015.4F
MILWAUKEE LAKESH 0410   65     150/  3/  4   N/A
S MID LAKE BUOY  0350   73 71  170/  6/  6 1014.3R
KENOSHA   LAKESH 0400   69     170/ 10/ 12 1014.2S
$$

TC  - TEMPERATURE IN CELSIUS
VSB - VISIBILITY IN STATUTE MILES
WCI - WIND CHILL INDEX
HX  - HEAT INDEX



USA.gov is the U.S. government's official web portal to all federal, state and local government web resources and services.